STARLINK-37283, 68568

Orbit data source: Space-Track

STARLINK-37283, 68568 is a payload satellite owned by SpaceX/Seattle (US) in LEO that was launched on Thu, 02 Apr 2026 UTC via an FALCON 9 launch vehicle from the Air Force Eastern Test Range (AFETR). Payload-class satellites include a variety of spacecraft equipped with specific instruments for various scientific and technological missions. These include communications satellites like Starlink; space stations such as the ISS; scientific satellites like the Hubble; Earth observation satellites from companies like Planet Labs, Umbra, and HawkEye 360; GPS; miniature CubeSats for education and research; and military/defense satellites.

Loading next visibility...
Identifier
68568, 2026-070AC
Orbit
LEO
Country
Flag of USUS
Related business
Manufacturer
SpaceX/Seattle
Mission
Operational spacecraft
Bus & Motor
STARLINK V2MO, Unknown motor
Mass
575 kg wet, ~530 kg dry
Launch date (UTC)
2026-04-02 (2 months ago)
Launch vehicle
FALCON 9
Launch site
Air Force Eastern Test Range (AFETR)
Object type
Payload
Rocket body
Debris
Shape & HBR
Unknown shape, 14.5 m
Radar Cross Section
RCS unknown

Expand to show TLE details & history
Last TLE update: 11 hours ago

TLE from 11 hours ago
0 STARLINK-37283
1 68568U 26070AC  26145.60968955  .00030478  00000-0  90923-3 0  9992
2 68568  53.1591   5.1520 0001853  87.0017 273.1197 15.34409905  8336
Epoch: 2026-05-25T14:37Z
TLE epoch observation values (Epoch: 2026-05-25T14:37:57.177Z)
Latitude
-0.00005°
Longitude
-97.5313°
Altitude
463.506 km
Speed
7.636 km/s
True Right ascension
00h 20m 36s
True Declination
0° 00' 00"
Sunlit
Object was in daylight at epoch
Visualization orbit readout
Latitude
Unknown
Longitude
Unknown
Altitude
Unknown
Speed
Unknown
Apparent Right ascension
Unknown
Apparent Declination
Unknown
Sunlit
N/A
Visualization observer readout
Local Sidereal Time
10:22:17
Azimuth
Unknown
Elevation
Unknown
Doppler factor
Unknown
Orbital elements
Apogee altitude
464.198 km
Perigee altitude
461.663 km
Semi-major axis
6,841.068 km
Eccentricity
0.00019
Inclination
53.1591°
RAAN
5.152°
Arg. of periapsis
87.0017°
True anomaly
273.0985°
Mean anomaly
273.1197°
Eccentric anomaly
273.1091°
Mean motion
3.83581 °/min
Orbital period
93.85 mins
BSTAR
0.00090923
Loading maneuver chart data...
Computing Atmospheric mass density...
Loading historical data...
Loading historical data...
Loading historical data...
Loading historical data...
Loading historical data...
Loading historical data...
Loading historical data...

Documentation

Showing up to 5 results
|